Location: Little Bennett Regional Park
(39.2840°N, 77.2890°W)
Time: 10:03:26
(UTC-04:00)

Daily predictions for brighter satellites

Satellite Brightness Start Highest point End
(mag) Time Altitude Azimuth Time Altitude Azimuth Time Altitude Azimuth
Cosmos 2228 Rocket 3.2 21:05:11 10° N 21:09:37 59° E 21:14:04 10° SSE
SPOT 5 3.9 21:07:33 10° SE 21:11:26 29° ENE 21:15:29 10° N
ALOS 3.1 21:08:35 10° S 21:13:07 52° W 21:17:42 10° NNW
Cosmos 1743 Rocket 3.6 21:12:34 10° S 21:16:59 66° E 21:21:26 10° NNE
Cosmos 1500 Rocket 3.8 21:19:34 10° SSE 21:23:47 51° E 21:28:03 10° NNE
USA 186 3.7 21:22:03 10° SSW 21:23:54 20° W 21:25:47 10° NW
H-2A R/B 4.3 21:23:05 10° ENE 21:24:12 11° ENE 21:25:19 10° NE
Cosmos 2221 4.3 21:21:05 10° NNW 21:24:55 33° W 21:28:45 10° SSW
deb Chang Zheng 4 3.5 21:22:21 10° NNE 21:26:42 75° ESE 21:31:01 10° S
BREEZE M DEB (TANK) 3.1 21:28:14 10° W 21:29:50 20° SSW 21:32:06 10° SSE
Cosmos 1441 Rocket 3.1 21:31:00 10° S 21:34:46 75° E 21:38:32 10° NNE
ATLAS CENTAUR R/B 2.3 21:32:05 10° NW 21:36:26 46° WSW 21:40:24 10° S
CZ-2C R/B 1.2 21:36:51 10° S 21:38:28 34° W 21:40:07 10° NNW
Delta 2 Rocket 3.9 21:35:40 10° SW 21:38:39 26° SSE 21:40:48 14° ESE
Cosmos 1538 Rocket 4.1 21:34:32 10° NNW 21:39:53 86° WSW 21:45:15 10° SSE
PSLV R/B 3.7 21:37:46 14° SE 21:40:07 42° ENE 21:43:03 10° N
Cosmos 2322 Rocket 2.4 21:34:57 10° NNW 21:40:34 75° WSW 21:46:09 10° SSE
Cosmos 1680 Rocket 4.5 21:35:52 10° N 21:40:37 33° ENE 21:44:32 14° ESE
Cosmos 923 Rocket 4.5 21:38:57 10° N 21:43:58 46° ENE 21:48:00 15° SE
Cosmos 1726 4.4 21:44:50 10° NE 21:46:23 12° ENE 21:47:47 10° E
SL-16 R/B 2.5 21:44:13 10° NNW 21:49:51 67° WSW 21:55:22 10° S
USA 245 4.0 21:48:59 17° ESE 21:49:55 21° ENE 21:51:54 10° NNE
Cosmos 1980 Rocket 4.3 21:46:07 10° NW 21:50:29 23° W 21:54:51 10° SSW
Cosmos 304 Rocket 4.4 21:46:35 10° N 21:51:08 40° ENE 21:54:23 17° SE
Cosmos 2360 Rocket 2.6 21:46:01 10° NNW 21:51:30 48° ENE 21:55:40 17° SE
Cosmos 1515 Rocket 3.7 21:47:56 10° N 21:52:23 77° W 21:56:47 10° S
Cosmos 1939 Rocket 3.3 21:48:56 10° S 21:52:51 59° W 21:56:44 10° NNW
Cosmos 2315 Rocket 4.5 21:47:01 10° N 21:52:54 43° ENE 21:57:25 17° SE
Cosmos 1908 3.2 21:50:37 10° N 21:54:30 71° E 21:57:31 16° SSE
CZ-4B R/B 3.8 21:49:35 10° NNE 21:54:42 48° E 21:59:35 11° S
AVUM R/B 2.2 21:52:34 11° SSW 21:54:42 67° ESE 21:57:07 10° NNE
Cosmos 2266 Rocket 4.0 21:51:03 10° S 21:57:22 78° E 22:03:36 10° N
USA 229 DEB 3.9 21:56:50 10° SW 22:03:45 81° NW 22:10:47 10° NNE
USA 229 3.8 21:56:56 10° SW 22:03:51 82° WNW 22:10:53 10° NNE
Meteor 2-20 Rocket 4.4 21:59:53 10° S 22:06:02 85° E 22:12:13 10° N
Cosmos 1633 Rocket 4.4 22:05:13 20° ESE 22:06:35 23° E 22:10:02 10° NE
Cosmos 773 Rocket 4.0 22:01:31 10° NNW 22:06:44 85° WSW 22:10:40 18° SSE
Sich 1 4.3 22:05:33 20° ESE 22:07:05 25° E 22:10:40 10° NE
MetOp-B 4.1 22:06:25 16° SSE 22:10:47 90° WSW 22:16:11 10° NNW
Cosmos 2151 2.8 22:10:13 13° S 22:13:53 85° E 22:18:06 10° N
Cosmos 1674 3.1 22:10:22 10° SSW 22:14:08 62° W 22:17:57 10° N
Terra 3.3 22:12:30 17° ESE 22:14:40 24° ENE 22:18:26 10° NNE
Cosmos 2227 Rocket 4.0 22:15:59 13° E 22:15:59 13° E 22:18:18 10° ENE
CZ-4 SHROUD 4.0 22:14:01 18° SSW 22:16:02 46° W 22:19:05 10° NNW
Cosmos 1437 Rocket 3.6 22:13:57 10° NNW 22:17:35 44° W 22:20:37 14° SSW
SL-23 DEB 4.5 22:12:48 10° NW 22:17:36 49° NNE 22:19:34 22° E
Cosmos 1833 4.4 22:12:27 10° SSW 22:18:10 75° WNW 22:23:52 10° NNE
Cosmos 1805 Rocket 3.7 22:17:07 23° SSE 22:19:40 55° E 22:24:01 10° NNE
Cosmos 2333 Rocket 4.1 22:17:48 10° N 22:21:38 18° NE 22:25:11 11° E
Cosmos 1151 Rocket 3.4 22:18:09 10° NNW 22:22:23 60° W 22:25:31 18° S
Meteor 1-4 Rocket 4.2 22:20:35 10° NNE 22:23:31 21° ENE 22:24:10 20° E
NOSS 3-1 (A) 3.9 22:20:05 19° SSE 22:23:34 37° ESE 22:29:18 10° NE
Cosmos 1300 3.2 22:20:15 10° N 22:23:57 44° E 22:25:08 33° SE
CZ-4 R/B 3.9 22:20:19 10° NNE 22:25:16 67° ESE 22:28:34 20° S
CZ-4C R/B 3.5 22:31:52 38° ESE 22:32:37 45° ENE 22:35:58 10° N
COSMOS 2428 3.1 22:28:15 10° NNW 22:33:48 52° ENE 22:36:34 28° SE
H-2A R/B 4.4 22:32:34 10° SW 22:35:55 20° W 22:39:18 10° NW
Cosmos 1328 4.3 22:34:24 17° SSW 22:37:19 57° W 22:41:15 10° N
Cosmos 1707 Rocket 3.5 22:34:41 10° N 22:39:02 73° E 22:40:39 38° SSE
Cosmos 1666 Rocket 3.5 22:39:51 34° S 22:41:40 72° E 22:46:04 10° NNE
DELTA 2 R/B (1) 3.5 22:37:49 10° W 22:43:21 71° SSW 22:45:57 32° ESE
Cosmos 2297 Rocket 3.9 22:43:59 15° E 22:43:59 15° E 22:46:39 10° ENE
Cosmos 2298 Rocket 4.0 22:41:52 26° S 22:44:50 65° ESE 22:50:07 10° NNE
Cosmos 2058 3.1 22:42:56 25° SSW 22:45:14 69° W 22:49:21 10° N
Cosmos 2112 Rocket 4.1 22:40:03 10° NNW 22:45:16 75° WSW 22:47:48 31° S
Meteor 2-11 Rocket 4.4 22:39:19 10° N 22:45:30 80° E 22:48:44 30° SSE
ATLAS 2AS CENTAUR R/B 3.9 22:45:19 24° ESE 22:46:23 25° ESE 22:52:28 10° NE
Cosmos 1455 4.0 22:44:07 10° NNE 22:46:52 19° ENE 22:46:55 19° ENE
YAOGAN 6 4.0 22:46:03 21° SSW 22:47:50 33° W 22:51:10 10° NNW
Cosmos 2219 Rocket 3.0 22:49:18 10° N 22:54:31 38° ENE 22:56:41 28° ESE
Cosmos 1470 Rocket 4.1 22:54:47 37° E 22:55:01 37° E 22:59:01 10° NNE
Cosmos 2237 4.2 22:49:46 10° NNW 22:55:32 84° ENE 22:57:51 38° SSE
Cosmos 1933 Rocket 4.2 22:56:12 37° ESE 22:56:33 38° E 23:00:42 10° NNE
Cosmos 1937 Rocket 3.7 22:56:43 40° SSE 22:58:03 51° ESE 23:03:06 10° NNE
ARGOS 3.6 22:55:49 26° S 22:58:45 56° W 23:04:04 10° NNW
Cosmos 220 Rocket 4.3 23:02:18 47° ESE 23:02:25 47° ESE 23:06:41 10° NNE
H-2A R/B 2.1 23:00:41 40° SSE 23:02:39 81° ENE 23:08:05 10° N
BREEZE-M DEB (TANK) 4.2 23:04:31 10° NNW 23:06:18 21° NNE 23:07:04 19° NE
SL-14 R/B 3.8 23:05:20 36° SW 23:06:39 56° W 23:10:36 10° N
Cosmos 1703 3.1 23:07:24 72° SE 23:07:41 77° E 23:11:36 10° N
IGS 5A 3.4 23:07:27 61° SE 23:08:03 73° ENE 23:12:14 10° N
Cosmos 2219 3.9 23:03:37 10° SW 23:09:14 54° WNW 23:14:53 10° NNE
ATLAS 3B R/B 4.4 23:04:14 10° NNW 23:09:51 24° NE 23:15:00 11° E
SL-08 RB Rocket 4.5 23:08:39 30° SSW 23:10:18 43° W 23:14:35 10° NNW
NOSS 3-1 (C) 3.5 23:05:53 10° SW 23:11:43 76° NW 23:18:12 10° NNE
Cosmos 990 Rocket 4.1 23:13:26 47° SE 23:13:58 49° ESE 23:18:56 10° NNE
Cosmos 1271 Rocket 2.5 23:10:52 10° N 23:14:42 90° E 23:14:50 83° S
NOSS 0 Rocket 4.3 23:09:11 10° NNW 23:15:11 52° ENE 23:17:23 36° ESE
Cosmos 2242 Rocket 3.6 23:11:10 10° N 23:15:37 76° W 23:16:33 55° SSW
Cosmos 2333 4.1 23:10:54 10° NNW 23:16:40 89° WSW 23:18:26 47° SSE
Cosmos 2237 Rocket 2.9 23:16:07 10° N 23:21:33 42° ENE 23:23:15 34° ESE
Cosmos 1726 3.1 23:18:25 10° NNW 23:21:57 39° W 23:22:28 37° WSW
Cosmos 2082 3.9 23:21:49 46° SE 23:22:31 49° ESE 23:28:00 10° NE
SAR-Lupe-2 3.7 23:22:48 71° WNW 23:22:48 71° WNW 23:26:13 10° NNW
Iridium 2 4.1 23:28:43 54° WSW 23:28:59 55° W 23:32:46 10° N
Cosmos 2360 Rocket 3.9 23:30:52 10° NW 23:35:05 22° W 23:37:27 17° SW
Cosmos 1898 Rocket 4.2 23:33:17 23° SW 23:36:19 49° WNW 23:41:23 10° N
Cosmos 1862 Rocket 3.4 23:32:55 10° N 23:37:18 83° E 23:37:20 82° E
CARTOSAT-1 4.3 23:37:19 40° WSW 23:37:53 42° W 23:42:00 10° NNW
Cosmos 1125 Rocket 4.3 23:42:38 37° E 23:42:38 37° E 23:47:08 10° NE
CZ-4B R/B 4.1 23:43:58 12° ENE 23:43:58 12° ENE 23:44:57 10° NE
Spot 4 4.2 23:44:36 49° SW 23:45:19 54° W 23:50:05 10° NNW
Terra 2.9 23:51:23 32° WSW 23:52:12 35° W 23:56:33 10° NNW
Cosmos 292 Rocket 4.2 23:49:33 10° NNW 23:54:07 47° WSW 23:54:22 47° WSW
